Theta_e
301 294 292 292 295 297 298 299 299 300 301 301 300 299 297 299 299 301 303 305 306 302 301 302 303 302 304 307 312 314 315 315 321 318 321 326 328 322 320 320 326 326 328 334 335 337 339 340 340 342 343 343 343 342 342 342 342 342 341 340 338 342 344 343 341 342 342 341 341 342 343 341 345 343 345 346 349 348 348 350 350 350 350 351 351 350
300 293 293 296 298 299 299 301 301 300 301 300 299 298 297 299 298 301 302 305 305 302 300 303 303 303 304 307 311 314 313 314 321 319 321 324 323 320 321 323 327 327 329 331 331 335 338 337 339 341 341 341 339 340 341 341 342 342 342 340 339 342 343 342 343 343 343 343 341 340 340 340 341 344 342 342 349 350 349 349 350 351 351 351 351 351
294 292 296 299 301 301 301 300 301 299 299 300 299 298 297 298 302 303 303 304 305 302 300 302 301 302 304 306 309 311 313 317 321 327 325 318 315 317 322 321 325 326 326 329 330 333 333 336 338 339 341 341 342 341 341 342 343 342 341 340 340 342 342 345 344 343 342 340 335 338 338 342 341 347 345 347 347 346 348 351 351 351 352 349 350 351
291 294 298 301 301 300 299 300 299 299 300 299 299 298 295 300 298 295 301 302 304 302 300 302 300 302 305 307 307 311 312 320 322 322 317 319 316 320 317 321 324 326 326 327 328 330 333 335 336 337 338 340 340 340 340 341 342 341 340 341 341 342 344 339 333 331 336 335 336 338 337 337 337 341 347 347 347 350 347 349 350 350 350 349 349 350
293 298 301 301 301 299 298 299 298 297 296 299 300 299 298 299 299 300 300 301 303 303 303 303 300 300 303 302 304 309 312 317 321 320 320 320 324 324 323 320 325 324 324 327 327 330 334 334 335 337 339 340 338 339 340 340 340 342 341 341 341 341 336 334 336 332 338 340 339 338 338 339 337 339 342 343 342 343 343 343 346 347 348 347 348 350
296 301 301 300 299 299 298 297 297 298 295 297 300 300 300 300 300 300 302 299 298 297 301 300 294 295 301 303 303 306 309 313 320 320 318 319 323 326 322 324 326 327 327 327 328 330 333 333 335 337 338 338 338 339 341 342 342 342 342 341 342 336 334 332 337 338 340 339 339 338 336 334 332 333 338 336 340 341 341 342 347 347 346 346 348 348
298 301 300 298 298 298 298 297 298 299 296 295 297 302 301 301 301 300 300 299 294 292 298 302 294 291 301 300 303 306 307 316 319 317 320 322 323 326 326 329 330 329 329 331 332 332 333 333 334 336 337 338 337 340 342 342 342 342 343 341 337 333 334 336 338 340 340 337 338 339 338 337 334 334 339 342 343 343 343 345 345 345 347 345 346 346
300 299 298 299 298 297 296 294 298 299 297 295 301 301 301 300 300 300 299 298 297 300 301 301 299 295 295 299 304 306 307 316 314 316 318 322 324 326 327 328 329 331 330 326 331 332 334 334 335 335 337 337 338 341 341 341 342 342 340 336 334 334 335 335 337 337 336 337 338 337 337 336 338 337 338 340 343 345 344 343 342 343 343 343 343 342
300 297 297 296 297 296 295 297 300 300 297 298 302 302 300 300 300 300 300 298 299 298 294 297 300 293 294 301 305 306 304 309 312 314 315 318 320 324 327 328 329 331 331 330 330 331 332 333 335 336 336 339 339 340 340 340 340 340 339 336 333 335 338 340 335 336 336 338 339 338 336 336 337 339 339 341 341 341 342 340 341 340 339 340 341 341
300 300 299 299 297 294 298 300 301 300 296 300 303 303 302 302 302 301 298 298 298 295 291 296 298 292 292 300 302 306 304 304 307 312 313 316 318 321 326 327 330 331 331 332 334 332 333 335 335 337 339 339 339 340 340 340 340 340 339 335 336 337 334 334 333 338 336 335 335 335 336 336 337 339 339 339 339 338 340 338 338 338 338 338 338 339
300 304 304 300 297 299 299 300 301 300 300 303 303 300 299 299 299 300 299 298 296 289 293 298 299 296 290 297 301 301 302 306 308 312 313 316 317 321 325 326 326 328 328 330 332 333 335 335 336 337 336 337 338 338 338 339 339 339 338 336 337 337 336 335 336 337 337 336 336 336 337 337 337 338 338 337 336 336 337 336 336 335 335 335 334 335
300 301 300 300 303 302 301 299 301 302 301 301 299 298 297 295 297 297 296 298 289 287 295 299 299 298 289 295 301 306 309 309 310 309 313 319 317 319 321 323 325 326 327 331 332 333 333 333 334 335 335 336 338 339 338 340 338 337 337 337 336 335 335 336 335 334 334 338 335 338 339 338 338 337 336 336 335 334 333 333 332 333 332 332 333 332
295 296 300 301 304 301 299 297 297 300 300 299 297 297 291 289 289 286 291 286 287 287 295 299 299 295 294 299 303 305 307 309 311 312 312 313 319 319 323 322 323 325 329 328 333 333 332 332 333 333 335 336 337 337 337 339 338 337 337 337 335 332 334 335 334 336 334 336 335 337 337 337 337 336 335 335 333 333 331 331 330 330 330 330 329 329
293 298 299 299 300 302 300 293 293 293 296 296 294 293 290 286 284 282 286 289 290 294 299 298 300 294 299 300 305 306 308 310 310 313 315 314 315 322 321 321 321 323 329 332 331 333 332 332 332 334 334 335 336 337 336 338 338 337 336 335 333 330 333 335 335 334 335 336 336 336 335 335 334 334 334 333 331 330 329 329 328 328 328 328 328 328
286 287 294 297 293 301 299 298 297 295 295 296 298 296 293 292 288 282 286 284 286 290 295 300 294 292 293 297 306 308 310 311 311 311 315 316 316 319 322 324 328 331 328 329 332 332 331 332 333 333 334 334 335 335 336 335 336 336 334 334 333 333 333 333 335 334 333 332 333 333 334 333 332 331 330 329 329 329 328 328 328 327 328 327 328 326
291 291 297 300 300 300 298 301 301 298 296 298 298 299 294 293 298 289 291 292 292 291 291 294 292 298 297 310 315 311 312 313 315 311 313 314 316 316 321 325 326 329 331 332 333 330 331 332 332 332 333 334 335 335 331 332 334 332 333 333 334 333 332 332 332 331 331 331 331 330 330 330 329 328 327 326 327 327 328 327 326 326 326 326 325 326
292 291 299 299 302 299 300 301 301 301 289 295 296 292 295 301 299 292 292 297 292 291 289 295 295 299 308 308 312 311 310 310 311 313 313 314 315 316 321 325 324 330 328 332 331 330 330 331 332 333 333 334 335 335 333 330 331 332 332 332 331 331 332 332 331 330 330 330 329 328 327 327 328 327 326 325 325 325 326 326 325 325 324 324 324 323
290 291 298 297 295 300 303 302 302 301 301 297 291 295 301 303 302 295 287 289 289 286 288 295 292 294 296 292 309 307 307 307 308 310 312 315 316 316 322 325 326 326 327 325 330 330 330 331 331 333 335 334 334 334 333 332 333 333 332 332 331 330 329 329 329 328 327 326 326 326 325 325 325 325 325 325 325 326 325 325 324 324 322 321 321 321
298 289 294 298 298 300 302 301 299 301 303 298 295 303 294 289 289 296 291 284 284 284 287 293 295 294 296 298 304 304 305 306 308 308 309 310 314 318 321 322 326 327 326 324 323 324 327 329 331 333 332 332 333 334 333 332 332 331 331 331 330 328 329 328 327 327 327 326 325 324 324 324 324 325 324 324 324 323 322 322 321 321 320 320 321 320
299 290 291 298 298 299 299 297 290 294 300 302 303 298 301 298 294 290 291 294 292 285 286 289 293 289 299 303 306 306 306 307 308 308 309 310 314 319 321 322 321 325 326 325 326 326 327 328 329 330 331 330 331 332 332 332 331 331 329 328 328 327 327 327 326 326 325 324 324 323 324 323 323 323 323 323 323 322 321 320 321 320 320 319 319 319
293 299 286 294 299 298 291 295 293 295 293 294 295 295 296 297 300 298 299 294 291 287 287 287 287 294 301 307 307 308 308 308 308 308 310 312 316 319 322 322 325 327 326 326 326 327 327 328 328 330 330 330 331 332 332 330 329 328 327 326 326 325 325 325 325 325 323 323 323 323 321 322 322 322 322 322 321 320 320 319 320 320 320 319 318 319
293 294 288 292 292 292 293 298 299 298 298 296 295 294 295 293 292 288 288 297 295 292 287 286 285 296 306 307 309 309 310 310 310 310 311 314 316 320 323 325 328 326 326 325 326 326 327 327 327 328 328 329 329 329 329 327 327 326 326 325 325 324 323 324 323 323 322 322 321 321 321 321 321 320 320 320 320 319 318 318 318 319 319 318 317 318
300 297 294 288 291 293 296 300 302 302 301 299 298 296 298 297 297 293 285 290 295 295 297 295 289 293 312 314 314 314 311 310 311 310 311 315 320 323 325 327 327 325 325 325 326 326 326 326 327 326 326 327 328 327 326 324 324 324 324 324 323 323 322 323 322 322 322 321 321 320 320 320 319 319 318 318 317 317 316 316 317 317 317 316 316 316
303 293 290 292 295 297 299 301 301 301 300 298 298 299 298 296 297 295 294 297 293 293 291 292 288 294 308 315 318 318 314 312 313 314 316 322 324 323 324 325 324 324 325 326 325 324 323 324 326 326 325 323 323 323 323 322 322 323 322 322 321 321 321 321 321 320 320 320 320 320 319 318 317 317 317 316 315 315 316 315 316 316 316 315 316 315
291 295 292 288 288 290 293 296 296 299 299 297 296 297 299 299 299 298 299 300 292 294 294 291 287 293 308 315 317 317 315 316 316 318 321 321 322 322 323 323 324 324 323 322 322 321 321 323 323 323 322 320 320 321 322 322 321 321 320 320 319 320 320 320 320 319 319 318 318 318 317 317 317 315 315 314 314 315 315 315 315 315 315 315 315 315
295 294 292 286 283 280 280 282 285 288 292 297 298 297 298 298 298 296 291 294 289 295 295 291 290 303 312 312 313 314 314 315 318 317 322 323 320 320 321 322 322 321 321 320 320 321 321 323 322 321 320 320 320 319 319 320 320 319 319 320 320 318 319 319 319 319 318 317 317 316 316 316 316 314 314 314 314 314 314 314 315 314 314 314 314 314
295 298 296 293 290 288 290 293 297 297 296 293 295 296 296 297 299 299 297 292 289 293 293 296 297 298 304 307 309 312 313 313 314 317 317 317 318 319 322 321 320 319 318 318 319 321 322 320 319 318 318 318 319 318 318 318 318 318 318 317 318 317 317 317 317 316 316 316 316 315 315 315 314 313 313 313 313 314 313 313 314 313 313 314 314 314
296 293 295 296 295 294 296 296 297 297 294 295 295 295 296 296 297 298 292 291 297 294 289 297 299 299 300 305 307 309 312 314 315 316 316 316 317 318 319 319 315 318 318 319 320 320 318 317 316 316 317 317 317 319 317 318 318 317 316 315 316 316 317 317 317 317 314 314 314 313 313 313 313 313 313 313 313 313 313 313 313 313 313 313 314 313
295 290 296 296 295 297 297 297 298 296 296 296 296 296 296 296 297 295 296 298 299 292 291 298 300 299 302 306 309 311 313 314 315 316 316 317 318 318 317 316 315 315 316 317 317 317 316 314 314 315 316 317 316 316 316 316 316 316 315 315 316 316 316 317 316 315 314 313 313 312 312 312 312 312 312 312 312 312 312 313 313 313 313 313 313 313
297 293 297 296 295 296 296 297 298 297 296 296 296 297 297 297 297 297 298 299 299 298 299 299 300 300 303 307 309 311 314 316 317 318 317 316 315 315 315 315 314 314 313 314 316 316 314 314 315 316 316 315 314 314 315 314 314 314 314 314 315 314 315 315 315 314 314 313 312 313 312 312 312 311 311 311 311 312 312 312 313 313 312 312 313 313
296 291 295 296 293 293 297 297 297 297 296 294 296 296 297 298 297 298 298 299 300 300 300 300 300 299 304 310 311 318 318 317 316 315 314 316 316 315 314 314 313 313 313 314 313 314 314 315 316 315 314 314 314 315 314 315 315 314 314 314 314 314 314 314 313 315 313 312 312 312 312 311 311 312 311 311 312 312 312 311 312 312 312 312 312 312
297 293 298 295 289 291 295 296 296 297 297 295 295 296 296 296 295 297 295 299 298 297 299 300 297 297 312 315 317 317 315 314 313 313 313 314 316 315 314 313 313 313 312 312 312 312 313 314 314 313 313 314 314 314 313 313 314 313 313 313 313 313 314 314 313 312 312 312 312 312 311 311 311 311 311 311 311 311 312 312 311 311 311 311 311 311
296 295 291 292 288 289 295 296 296 295 295 292 291 296 297 298 299 299 299 300 301 301 297 293 297 302 310 315 314 314 314 314 313 312 313 314 315 316 314 313 313 312 312 311 310 311 313 313 312 312 312 313 313 313 313 313 312 311 311 311 312 313 313 313 313 312 312 313 313 312 312 311 311 310 310 310 311 311 311 311 310 310 310 310 311 311
297 296 292 296 287 289 294 295 296 291 284 286 300 303 300 298 298 297 297 300 302 302 300 303 302 305 310 312 311 313 313 313 313 315 316 315 315 314 314 314 312 311 311 311 312 313 313 313 312 313 314 314 314 315 316 314 312 312 312 312 312 312 312 312 312 311 311 312 312 312 311 311 310 310 310 311 311 311 310 310 309 310 310 310 311 310
296 295 292 296 290 288 292 293 288 282 285 303 306 308 307 305 300 299 300 301 301 302 303 302 303 306 311 311 313 315 316 316 316 315 316 317 316 314 314 313 311 310 310 310 312 313 314 314 313 314 315 315 314 313 314 313 313 312 312 312 312 312 312 312 311 311 311 311 311 311 311 311 310 310 310 310 310 310 309 309 309 309 310 310 309 309
293 292 293 291 292 292 289 288 281 284 298 304 307 306 310 306 303 302 299 301 302 302 302 302 304 307 313 315 315 317 316 316 316 316 317 317 317 315 314 312 311 311 310 312 313 314 313 312 312 313 313 314 313 312 312 311 312 311 311 312 311 311 311 311 310 310 311 310 310 311 310 310 310 309 309 309 309 308 308 308 308 308 309 309 308 308
299 296 294 290 295 287 288 288 287 297 298 302 299 304 302 298 300 298 291 297 304 304 304 303 304 307 315 315 316 316 315 314 312 313 316 317 318 317 315 314 314 314 314 313 314 313 314 316 316 315 314 314 313 312 312 312 312 312 311 311 310 310 310 310 310 309 309 310 310 310 310 310 309 309 308 308 308 308 308 308 308 308 308 307 308 307
300 294 296 291 289 292 288 287 287 287 284 292 304 309 310 307 306 305 300 297 305 306 306 305 304 309 314 314 314 314 314 309 306 308 314 316 317 316 315 316 316 316 315 316 316 317 316 315 315 315 315 314 313 313 313 313 312 311 311 310 309 309 309 309 308 309 309 309 309 309 310 310 309 308 308 308 307 307 308 308 308 308 308 307 307 307
300 299 297 292 290 290 289 286 286 284 287 299 304 308 308 311 309 307 298 293 302 305 306 306 304 310 313 313 313 313 309 305 305 309 314 316 316 316 315 314 315 315 315 315 316 314 314 314 314 314 314 313 312 312 313 313 312 311 310 309 308 309 308 308 308 308 308 308 308 309 309 309 308 307 307 307 307 308 307 307 307 307 308 307 307 307
296 294 293 291 289 290 289 287 286 289 290 300 304 308 309 311 310 303 288 288 302 305 306 306 305 311 314 314 314 312 309 301 307 310 316 317 318 316 314 313 314 314 315 315 315 315 314 314 313 312 312 311 311 313 312 312 311 310 307 307 307 306 306 307 307 307 307 307 307 307 306 307 307 307 306 306 306 306 306 307 307 308 308 307 306 305
291 291 292 289 290 290 287 289 290 291 299 306 306 308 310 313 307 291 285 294 305 306 307 308 307 313 315 314 313 309 313 315 316 317 318 317 314 313 314 315 315 314 313 313 312 309 312 312 312 311 311 311 312 312 311 310 308 306 306 305 304 304 304 305 305 305 305 305 304 304 304 305 305 305 305 305 306 306 307 307 307 307 307 306 306 306
291 291 291 292 289 289 290 288 289 292 302 307 308 308 312 306 291 290 304 311 314 312 310 309 310 315 316 315 313 313 316 318 318 317 317 315 314 314 313 313 313 313 313 312 310 312 313 312 312 311 311 311 311 311 310 308 305 304 304 304 303 305 306 305 305 305 304 303 303 304 304 304 305 306 306 307 307 306 306 307 307 307 306 306 306 306
291 288 288 288 290 291 290 288 287 284 295 309 309 307 310 297 297 308 312 312 309 315 311 310 313 316 317 315 316 317 318 317 317 316 314 314 313 311 311 311 311 310 310 309 310 311 312 312 311 310 310 311 311 309 308 307 305 304 304 303 304 306 306 306 307 306 306 305 305 305 305 306 306 307 307 307 307 306 305 305 306 306 306 306 305 305
298 289 290 291 295 288 288 286 287 295 304 311 306 296 305 309 311 314 313 312 314 315 314 312 312 317 318 317 315 317 316 315 315 314 313 312 312 311 311 311 311 311 310 311 311 311 312 311 311 310 311 310 309 309 308 306 305 304 304 304 306 307 307 307 307 307 306 306 305 305 306 306 307 307 307 307 307 306 306 306 306 306 306 306 304 304
299 295 299 290 297 293 290 295 303 307 308 311 312 311 313 313 314 315 314 313 314 313 317 316 316 318 318 317 317 316 314 315 314 314 312 311 311 310 310 310 310 310 310 311 311 311 311 311 310 310 309 309 308 308 307 306 305 304 304 305 306 306 307 307 306 305 305 305 305 306 306 306 306 306 306 306 305 305 304 305 305 303 304 304 304 303
305 307 308 302 296 304 305 306 310 310 311 311 312 313 313 314 313 315 315 313 314 316 316 316 316 316 316 317 315 314 314 314 312 312 311 310 310 310 310 310 309 309 310 311 311 311 311 311 310 308 307 307 307 306 306 306 305 304 304 306 306 306 306 306 306 305 305 305 305 305 305 305 305 305 306 306 306 305 305 304 303 303 303 302 302 302
306 305 302 296 302 297 292 304 306 308 311 312 311 312 313 314 315 315 316 316 316 316 316 317 317 316 317 316 314 313 314 314 312 311 310 309 309 309 308 308 309 310 309 309 310 310 310 308 307 306 305 305 305 305 305 305 305 305 305 305 306 306 306 306 305 304 304 304 304 304 304 304 303 304 305 305 304 304 305 304 305 305 302 302 301 301
300 307 301 300 302 296 294 304 309 311 311 313 312 311 312 312 312 314 316 318 317 318 317 317 317 316 316 314 314 313 314 314 312 310 309 309 309 308 307 306 307 308 309 309 309 309 309 307 306 305 304 303 304 304 304 304 304 304 305 305 305 306 306 304 304 303 303 303 304 303 303 302 295 300 303 303 303 301 301 302 303 302 300 300 301 302
303 304 294 301 300 299 305 306 306 308 309 309 311 314 314 313 313 314 314 315 317 315 316 317 317 316 315 313 314 314 313 313 312 311 310 309 309 308 306 306 307 307 307 307 308 308 307 306 305 305 304 303 304 304 303 303 304 304 305 305 306 306 305 303 302 303 304 304 303 302 302 303 304 303 303 302 301 299 298 300 300 300 298 298 298 297
303 299 304 300 294 294 296 301 306 298 296 306 309 311 311 314 315 314 314 314 314 314 314 314 314 316 315 315 314 313 312 311 312 311 310 309 308 307 306 306 306 306 307 308 308 308 307 306 305 304 303 303 303 303 303 303 303 304 304 305 305 305 304 304 303 303 302 302 302 302 302 302 301 300 300 300 299 298 297 289 289 294 298 297 291 288
301 304 302 296 295 294 303 306 308 309 309 310 311 313 313 315 315 313 313 313 313 314 314 314 313 312 313 314 314 314 312 311 312 311 309 309 308 308 307 307 306 307 307 308 307 306 306 305 304 304 303 303 303 303 303 303 303 304 304 305 305 305 304 304 302 302 301 302 302 301 302 301 300 299 298 298 297 296 295 295 296 289 287 289 289 289
Wind_Speed
14 17 18 20 17 19 21 20 20 19 14 14 14 16 17 14 13 17 13 15 18 17 18 16 17 18 19 9 11 15 17 16 15 19 14 7 8 10 10 8 7 11 9 9 12 13 13 13 13 12 11 12 13 13 13 12 12 12 12 12 13 11 12 10 10 9 9 9 8 6 7 5 6 6 6 4 5 5 4 5 5 4 4 3 3 3
16 18 19 20 20 19 19 18 19 20 19 14 15 15 16 14 11 16 13 12 14 14 15 17 16 19 19 13 13 14 17 16 12 15 14 13 12 9 8 6 8 11 12 12 9 10 10 11 13 12 11 14 15 13 15 15 14 14 12 12 12 11 11 10 9 7 7 6 3 3 3 2 1 3 6 5 2 1 4 3 4 3 3 3 3 2
18 20 19 20 19 17 18 19 19 21 18 13 12 14 15 13 13 15 12 13 12 14 11 18 16 16 19 17 13 17 17 15 14 10 11 15 11 9 3 8 6 10 12 13 12 11 12 13 11 10 10 12 14 16 15 15 16 14 13 11 11 9 9 7 3 3 4 7 9 5 3 3 0 4 1 2 5 3 1 3 4 4 3 3 2 2
17 17 21 19 18 19 18 20 19 20 16 12 11 12 14 13 15 13 15 14 12 11 11 15 17 13 16 18 16 16 17 13 12 13 18 14 13 11 12 8 8 11 12 12 11 11 13 14 13 13 11 11 11 12 12 13 14 12 11 10 9 9 5 7 6 2 0 3 7 4 2 3 6 3 1 4 3 5 6 4 4 3 3 3 2 2
17 13 19 19 19 20 19 19 19 17 13 14 15 13 13 15 16 11 12 11 10 13 16 12 14 13 15 17 16 16 17 17 16 13 11 9 8 15 13 13 12 14 9 8 8 9 13 15 14 14 13 13 13 12 13 12 11 8 11 9 8 6 8 6 4 6 6 5 5 3 4 2 2 4 3 2 4 3 4 5 4 3 3 3 3 2
17 16 20 21 20 21 18 17 21 17 13 13 18 15 13 13 16 11 13 15 10 11 15 12 10 13 14 17 16 15 16 13 15 17 9 9 12 14 13 15 15 13 16 15 14 13 13 14 14 13 14 14 13 12 12 11 11 11 10 10 8 10 7 5 8 7 5 4 6 6 4 4 4 5 3 3 3 5 5 5 4 4 3 3 3 2
13 16 20 22 21 21 20 16 20 19 13 13 14 16 13 13 15 13 9 15 11 12 14 16 12 7 12 18 17 16 17 15 10 14 15 14 13 13 12 13 14 14 10 6 11 13 13 13 12 13 12 13 13 12 10 10 11 10 10 9 9 9 9 9 5 4 2 1 3 4 4 5 5 3 3 3 4 3 4 4 4 4 3 3 3 2
14 20 20 22 21 21 19 17 19 20 15 13 10 16 15 14 16 15 13 13 9 10 14 20 13 10 12 16 17 16 17 15 15 12 16 12 13 13 13 13 13 13 16 12 12 14 15 14 13 14 12 12 13 11 9 9 10 11 10 8 7 8 6 4 3 2 0 3 1 5 4 3 3 4 3 5 4 3 3 4 4 4 3 3 3 2
17 19 21 24 22 17 18 16 16 20 15 9 12 16 15 11 11 15 13 11 11 10 11 15 18 12 12 11 18 20 20 20 19 17 15 17 15 14 11 12 14 13 14 16 15 15 15 14 14 13 12 11 12 11 9 9 10 10 10 7 7 8 7 7 5 4 4 6 6 3 1 3 7 8 7 5 4 4 4 4 3 3 2 3 4 5
14 18 19 19 16 16 15 18 17 21 17 15 10 14 11 9 9 10 10 11 12 12 12 15 16 13 12 10 14 18 20 20 21 21 20 19 18 14 11 12 12 10 12 14 14 16 14 14 12 11 11 10 10 9 10 10 11 11 10 10 9 8 6 5 6 7 6 6 4 2 3 6 2 3 4 4 5 3 3 4 3 2 2 3 3 3
14 12 14 11 17 15 17 17 17 19 19 14 9 15 13 10 9 7 8 9 9 12 14 13 18 15 11 13 10 14 15 15 15 15 20 21 18 14 13 10 8 7 8 11 13 15 16 14 14 12 12 12 11 10 12 12 12 12 11 11 10 9 7 7 7 5 6 6 2 4 8 6 6 4 4 4 4 3 3 2 2 1 3 3 4 3
14 16 17 13 16 13 16 16 17 17 20 14 9 11 12 11 10 9 9 10 11 12 15 15 13 18 14 11 11 9 12 16 14 16 17 23 21 18 14 12 11 11 11 15 16 15 15 14 14 13 13 12 13 14 14 13 12 12 12 12 11 9 7 6 5 3 1 2 2 3 4 5 4 4 3 4 4 3 2 2 1 1 0 1 1 1
15 15 13 15 16 21 17 15 16 17 20 14 12 13 13 11 8 10 11 12 14 12 10 15 17 14 17 10 8 16 15 16 14 13 16 19 26 22 16 18 17 16 15 13 14 14 14 14 14 14 14 14 14 14 15 14 12 12 13 13 13 10 7 8 5 5 5 5 7 5 5 5 5 5 3 3 3 2 3 2 1 0 1 2 2 3
11 16 20 17 16 17 16 17 16 16 19 17 15 15 15 13 13 12 14 8 10 10 10 13 19 15 9 14 14 6 16 13 15 13 14 16 17 24 22 21 20 18 17 16 14 16 15 14 13 15 15 14 13 14 14 13 14 12 12 12 12 9 7 8 8 9 7 6 6 5 5 4 3 4 3 3 4 3 2 2 2 2 2 2 1 1
13 15 19 21 15 18 18 18 15 14 18 16 15 15 14 12 10 10 11 12 12 10 13 9 12 11 13 5 13 9 4 9 10 12 11 12 14 14 18 15 17 17 17 15 16 15 15 14 14 13 14 13 13 14 10 9 10 12 12 9 11 11 10 9 8 8 7 7 7 6 5 4 4 4 4 5 4 3 3 2 3 2 1 2 4 4
19 11 14 20 11 21 19 16 15 17 15 15 14 13 14 14 8 10 6 8 10 10 11 11 8 9 6 6 10 8 9 6 0 5 8 11 11 13 13 17 14 14 14 15 15 15 16 16 14 13 12 13 13 15 12 7 6 10 10 10 12 12 11 10 10 9 7 6 5 5 5 4 5 4 4 4 3 3 3 3 2 3 2 3 3 3
14 12 17 19 14 20 18 17 16 17 14 15 15 16 15 13 11 6 4 2 5 5 9 5 10 6 7 4 4 7 11 10 8 8 7 7 8 11 13 13 15 14 14 10 13 14 17 16 16 15 15 14 13 12 11 15 11 11 12 14 13 12 12 11 10 9 7 6 6 6 6 6 5 6 6 5 5 4 3 3 3 4 4 3 4 4
12 11 18 18 18 17 18 18 16 17 11 12 15 15 13 13 14 9 7 5 7 10 6 12 13 12 10 8 10 10 12 13 13 13 12 11 10 10 12 13 14 13 10 11 9 13 14 15 17 16 14 15 13 11 9 13 12 12 13 15 14 12 11 10 9 8 8 7 7 6 6 6 6 6 5 5 4 3 4 4 4 3 4 4 4 4
13 10 14 18 16 16 18 17 15 14 16 13 15 11 14 12 14 13 6 12 12 10 9 13 13 13 13 9 14 15 15 14 14 15 14 15 13 12 13 14 14 14 14 12 16 16 14 17 18 16 15 15 14 14 13 14 14 13 12 13 12 12 11 10 8 8 7 7 6 6 6 6 5 5 5 5 5 5 5 5 5 5 4 4 4 5
14 10 11 16 18 17 16 16 15 15 17 17 12 15 13 9 12 12 9 8 9 9 8 12 14 10 13 9 17 17 16 16 16 16 16 16 15 14 12 14 13 15 17 18 17 14 15 17 16 17 17 16 16 16 16 16 15 15 14 13 13 11 10 10 9 8 7 7 6 6 5 5 5 5 5 5 5 5 6 5 6 5 6 5 5 5
10 9 10 14 17 17 15 15 17 16 16 15 13 15 14 11 9 11 9 11 10 8 9 6 11 9 8 10 14 16 16 16 16 15 14 14 15 14 14 14 16 17 17 18 17 17 20 19 18 16 17 15 14 14 14 15 16 14 12 13 12 12 11 10 9 8 8 7 7 7 6 5 6 6 6 6 6 6 6 6 5 5 5 5 5 5
8 12 11 14 16 17 15 16 15 17 18 16 13 13 15 16 12 12 12 11 13 10 8 9 8 6 6 4 9 13 13 15 16 16 13 13 14 14 12 14 16 16 17 18 18 19 19 20 18 15 14 14 16 16 14 15 14 14 13 12 12 11 10 9 9 8 7 7 7 7 6 7 6 6 6 6 7 6 6 6 5 5 5 6 6 5
9 9 11 13 15 14 17 18 17 16 19 18 12 11 12 12 12 12 11 12 12 12 9 9 8 2 5 4 4 2 12 13 14 15 14 13 13 12 13 16 16 17 18 18 19 17 15 15 17 18 17 14 14 15 16 14 13 13 14 13 11 11 10 9 9 8 7 7 7 7 7 7 7 7 7 7 6 7 7 6 6 6 6 6 6 6
9 8 12 13 13 13 14 16 17 15 16 17 15 15 14 14 15 13 11 10 9 10 10 6 6 4 3 3 3 0 5 14 11 13 13 12 14 15 16 15 17 17 18 17 16 13 12 14 16 15 16 16 14 15 13 12 14 14 12 11 11 12 11 11 10 8 7 7 7 8 8 8 7 7 8 7 7 7 7 6 6 6 6 6 6 6
9 10 12 12 11 13 14 15 15 17 15 14 14 17 17 14 16 14 12 9 8 12 12 7 9 6 5 3 3 4 3 9 10 9 13 16 14 14 14 15 16 16 17 17 19 18 17 16 18 16 16 15 15 14 12 12 13 13 12 11 11 9 10 11 9 9 8 8 8 8 8 9 8 8 8 7 7 7 7 7 7 6 7 7 7 7
9 10 12 13 16 17 17 18 18 19 19 13 15 19 20 17 17 13 11 10 11 11 14 9 4 4 4 5 8 6 8 9 8 10 14 13 15 14 15 15 17 15 16 16 17 18 19 16 14 15 15 14 14 14 14 13 13 12 12 12 11 9 10 11 9 9 9 8 8 8 8 8 9 8 8 7 7 7 7 7 7 7 7 7 7 7
8 11 13 13 14 13 13 13 12 12 13 15 18 19 20 20 17 15 10 11 9 7 11 13 9 7 7 8 11 13 9 11 12 13 13 14 14 14 14 15 14 13 15 18 17 15 13 16 18 16 15 15 14 14 12 12 12 12 12 12 12 11 11 9 8 8 9 8 8 8 8 8 8 8 8 7 7 6 7 7 7 8 8 7 7 7
9 12 16 15 14 14 15 13 12 15 17 17 17 19 19 21 19 17 11 11 12 10 10 10 13 10 5 9 12 14 12 11 12 11 12 13 13 14 11 12 14 12 15 15 15 17 16 17 18 17 14 15 14 13 13 12 12 12 12 12 11 11 11 9 10 8 8 9 8 8 8 8 8 8 8 7 7 7 7 7 8 8 7 7 8 8
11 9 15 15 15 16 14 16 17 17 17 17 17 17 19 19 20 17 14 14 11 8 7 11 14 14 11 9 9 12 11 11 14 11 10 12 13 14 14 16 14 13 11 14 16 14 15 18 18 19 16 14 13 14 15 13 12 11 8 9 10 10 10 10 10 10 10 9 8 8 8 8 8 8 8 8 8 8 8 8 8 8 7 7 7 7
8 9 15 14 12 15 15 16 16 18 17 17 18 16 16 17 18 17 15 15 15 12 12 6 9 11 11 11 11 11 11 12 12 13 13 14 16 17 16 15 15 16 16 15 12 15 18 19 20 19 18 17 16 16 14 12 11 10 11 11 11 11 10 10 10 10 10 9 8 8 9 8 8 8 8 8 8 8 8 8 8 7 8 8 8 8
11 9 14 14 11 13 14 13 11 11 13 15 17 17 16 15 15 17 14 14 16 13 12 13 7 8 5 11 10 12 11 11 13 14 14 14 16 17 17 17 16 16 16 17 16 15 16 16 16 18 18 18 16 16 14 13 12 11 11 11 11 11 11 11 10 10 11 9 9 9 9 8 8 8 8 8 8 8 8 8 7 7 8 8 8 8
12 5 14 12 8 9 10 11 10 13 15 16 16 19 19 19 18 16 13 13 13 14 14 10 8 8 8 11 12 13 12 13 15 14 12 13 15 17 18 18 17 17 18 16 15 14 12 14 16 16 16 15 15 14 13 12 11 11 10 11 11 11 11 10 9 9 10 9 9 10 9 9 9 9 9 8 8 8 8 8 7 7 7 8 8 8
11 8 10 12 12 9 12 10 12 11 11 14 14 16 19 17 14 14 14 15 16 14 12 9 10 7 12 11 12 12 13 13 14 14 14 14 15 16 18 18 18 18 17 17 19 15 15 16 16 16 15 14 15 14 14 13 12 12 11 11 12 11 11 11 11 11 10 9 8 10 8 9 9 9 8 8 8 7 7 7 7 7 7 8 8 8
11 8 10 12 10 8 13 14 9 9 11 10 4 11 15 17 17 17 15 15 16 14 10 9 8 7 14 13 13 14 14 13 13 13 13 14 13 15 17 18 18 19 19 19 18 18 19 16 14 15 15 13 13 14 13 12 12 12 12 12 12 12 11 11 11 10 10 9 9 9 9 8 9 8 8 8 8 8 7 7 7 7 6 7 7 7
11 9 8 10 8 7 10 9 9 11 9 5 1 2 2 6 14 17 16 17 15 16 14 12 13 5 8 10 10 11 11 12 12 13 14 15 16 16 18 19 20 18 18 19 19 19 18 17 13 13 13 11 11 12 12 12 12 12 12 12 12 12 12 11 11 10 10 10 9 9 9 9 9 8 9 8 8 7 8 7 7 6 7 7 7 7
8 7 6 8 8 4 7 8 9 8 4 3 3 1 1 3 7 12 16 17 20 17 16 14 10 10 5 5 8 10 11 12 11 11 12 15 16 17 18 18 18 17 17 16 19 17 17 19 18 17 14 12 13 12 12 12 12 12 12 12 12 11 11 11 11 11 10 9 8 9 9 9 9 9 9 9 8 8 8 8 8 8 7 7 8 8
12 8 6 8 10 7 8 9 7 7 7 6 1 5 6 11 12 10 6 12 12 13 16 13 13 11 9 9 10 11 11 11 11 10 13 15 16 17 20 20 19 16 17 18 17 16 18 18 19 18 16 14 13 12 12 12 12 12 12 12 11 11 11 11 11 10 9 8 9 10 9 9 9 9 9 9 9 8 8 8 7 7 7 7 6 7
12 12 8 8 6 7 7 8 8 4 5 6 2 3 6 7 10 12 9 9 11 12 13 14 15 13 12 12 13 14 13 12 10 10 13 15 17 19 18 19 19 19 18 17 18 18 17 16 16 16 14 14 13 12 12 12 12 13 12 11 11 11 11 11 11 10 10 10 10 10 9 9 9 10 9 9 8 8 8 7 7 7 6 6 6 7
12 12 7 7 5 3 4 8 8 7 1 3 5 5 7 3 7 10 10 12 13 17 16 15 14 14 14 15 16 16 12 9 10 12 15 17 18 19 19 20 21 18 18 19 20 20 19 17 17 16 15 14 14 13 12 13 13 12 12 11 11 11 11 11 11 10 10 11 10 10 9 9 9 9 9 9 9 8 8 8 7 6 6 6 6 7
12 9 8 9 7 6 7 6 7 2 3 5 6 6 7 8 8 10 11 10 12 17 17 16 15 14 15 17 17 14 12 7 10 13 17 17 17 18 20 21 19 19 17 19 19 19 19 18 17 16 14 14 14 13 13 12 11 12 11 11 11 11 11 11 10 10 11 10 10 9 8 8 9 9 8 8 8 8 7 6 6 6 5 6 6 7
10 8 7 9 8 8 8 5 3 3 5 6 6 7 6 5 8 10 11 1 1 13 12 15 14 16 16 17 15 11 10 3 8 18 19 16 17 16 17 19 20 20 19 19 18 17 17 17 16 15 15 14 14 14 13 12 12 12 11 11 11 12 11 10 10 11 11 10 10 9 9 8 8 8 8 8 8 7 6 6 6 6 6 7 6 6
9 7 9 8 9 8 7 7 6 2 2 4 5 6 8 9 7 9 4 5 6 5 15 15 15 16 16 16 12 7 5 6 19 21 21 19 18 19 19 21 21 20 19 17 15 16 18 17 16 16 15 14 14 14 13 13 13 13 13 12 13 13 12 12 12 11 11 10 10 11 10 9 9 8 7 7 6 6 6 6 6 6 7 6 6 6
10 8 10 10 6 6 5 7 7 7 4 8 7 8 5 4 2 5 1 2 4 5 10 13 11 12 14 13 10 7 10 14 19 21 20 22 22 20 19 20 21 21 20 19 18 17 17 17 17 16 16 14 14 13 13 14 14 13 13 14 14 13 13 12 12 12 12 12 12 11 10 10 10 7 6 7 7 8 8 7 7 7 7 7 7 7
6 7 7 6 8 7 6 7 4 2 7 11 9 1 6 3 4 3 4 2 3 2 5 8 13 13 13 12 10 10 11 17 18 22 20 21 21 21 20 19 19 20 20 20 20 20 20 18 17 16 16 14 13 13 13 14 14 13 14 15 12 12 12 12 12 12 12 11 11 11 10 10 9 7 7 7 7 7 7 6 6 5 5 5 5 5
5 2 3 2 7 5 1 2 6 4 6 5 1 6 6 7 5 4 5 5 2 2 3 3 8 11 10 9 9 12 15 17 19 21 21 21 22 21 21 19 20 22 21 21 21 19 18 18 18 17 16 14 14 13 13 13 15 16 15 13 13 12 12 12 12 12 12 12 11 10 10 9 8 8 8 7 7 7 7 6 6 6 5 5 5 5
2 2 2 2 2 7 9 5 4 7 7 7 5 5 4 3 3 2 5 4 3 1 2 4 8 9 11 12 10 12 15 18 20 19 20 21 22 21 22 22 20 19 19 20 20 19 19 18 17 17 17 16 15 13 13 13 14 16 14 13 12 12 13 13 13 12 12 11 10 10 10 9 9 8 7 7 6 6 5 6 5 6 5 5 5 5
4 4 6 6 4 5 4 5 4 6 5 5 5 5 4 2 2 1 3 4 3 1 3 3 6 9 11 11 10 12 16 19 19 19 19 19 22 23 22 20 19 21 20 20 19 19 18 18 17 17 17 16 14 13 14 15 13 14 13 13 13 13 13 13 13 12 12 11 10 10 10 9 8 7 6 7 6 6 5 5 5 5 5 5 6 6
5 3 4 7 3 4 2 1 6 5 4 3 2 2 3 5 4 2 2 3 1 3 3 3 8 9 10 10 12 13 15 19 21 20 20 19 21 23 21 19 20 19 18 19 19 19 18 17 18 18 17 16 14 14 14 13 14 14 13 13 13 13 13 12 12 12 12 12 10 9 9 9 6 6 7 7 7 7 6 6 7 7 8 8 8 6
1 6 3 4 5 3 9 5 3 4 4 5 3 4 4 4 4 3 3 2 3 6 4 4 6 12 11 11 12 13 16 17 19 20 21 21 22 20 18 18 18 18 18 19 18 18 16 17 18 18 17 15 14 14 14 14 13 14 14 13 13 13 13 12 12 12 12 10 9 10 9 7 7 7 7 8 9 10 10 8 7 9 10 10 8 7
6 4 4 3 2 4 1 2 5 2 3 7 7 4 3 3 4 5 3 3 1 4 4 7 7 10 10 12 12 13 16 17 18 19 21 21 20 20 20 19 18 19 19 18 17 17 18 18 18 18 17 15 14 14 14 14 14 14 13 13 13 13 12 12 11 11 10 10 9 9 8 8 8 8 8 9 9 10 10 14 16 12 8 8 9 11
4 6 4 3 4 2 3 3 2 4 7 5 6 5 4 4 5 5 4 2 3 3 5 6 9 10 10 11 12 13 15 17 18 19 19 18 19 19 20 21 20 19 19 19 18 19 19 18 18 18 17 15 14 14 14 14 14 14 13 13 13 13 12 12 10 9 9 9 8 8 9 8 9 9 9 9 9 9 10 9 9 12 12 9 8 10
Wind_Direction
176 201 200 206 206 202 208 209 216 226 230 218 212 207 219 220 201 209 221 169 187 199 208 203 206 219 230 202 186 190 197 205 205 127 202 201 147 114 109 161 143 134 124 131 133 135 140 143 145 148 153 146 144 149 155 158 170 172 172 171 176 174 176 174 175 179 185 185 182 172 185 164 194 164 167 182 161 195 148 162 173 158 161 169 169 179
193 209 210 205 206 204 204 210 214 222 233 228 212 207 217 215 212 199 204 151 184 214 197 215 206 216 225 211 200 199 196 204 190 149 179 207 103 118 146 144 147 121 131 127 131 143 136 150 149 149 153 150 149 155 161 164 168 172 171 176 177 176 179 181 179 174 186 187 155 60 322 202 209 214 168 160 142 299 132 177 148 151 169 156 160 178
201 211 206 203 204 207 203 208 211 222 225 241 243 201 217 200 224 193 178 166 189 210 211 202 219 213 218 222 199 212 199 202 209 174 99 88 105 137 163 140 148 130 129 147 157 165 144 149 151 156 153 157 156 159 164 168 168 170 173 176 175 180 180 178 98 17 25 21 13 356 311 300 83 279 171 143 163 152 190 176 160 157 163 161 153 170
202 210 206 199 200 209 204 206 207 217 226 221 231 207 208 196 207 189 177 163 187 206 216 195 216 219 215 223 215 210 206 189 199 113 104 129 156 161 157 160 173 142 148 161 169 163 156 151 160 159 159 156 157 160 167 167 169 170 175 173 173 176 158 60 67 86 19 178 182 188 123 39 314 298 133 144 125 177 171 176 168 157 158 157 153 159
205 194 199 199 198 207 204 198 203 212 207 218 223 216 207 204 206 223 162 166 183 202 236 210 204 221 213 212 211 208 205 201 109 110 133 153 167 160 176 158 165 153 150 148 153 177 164 162 164 163 161 158 164 166 169 168 164 170 170 166 171 114 70 55 102 178 219 180 158 127 109 87 91 267 255 150 175 192 175 170 168 146 145 155 146 156
206 198 191 199 196 202 204 195 203 203 206 208 222 230 220 209 208 197 172 175 184 207 208 233 213 213 209 216 207 207 199 191 141 114 136 169 190 174 166 165 172 161 163 162 163 173 176 171 162 165 165 162 160 167 171 170 163 161 163 162 141 94 109 181 214 207 195 153 148 152 133 137 120 229 214 195 177 206 180 137 131 130 127 129 119 161
205 192 191 198 195 194 202 202 200 201 207 208 200 227 236 220 216 183 197 182 194 208 182 213 229 198 213 213 208 205 203 143 156 149 146 173 186 181 171 171 168 166 137 168 169 172 177 169 165 167 171 163 162 165 163 162 158 151 151 112 86 122 147 179 202 177 83 198 185 164 172 156 181 192 212 208 185 166 120 117 121 112 107 104 111 101
206 193 190 195 194 194 199 204 194 194 207 212 189 204 230 236 221 179 199 192 211 210 190 200 221 241 201 205 199 204 209 145 164 177 154 165 187 182 175 170 172 175 156 176 183 180 175 174 169 169 170 169 164 156 155 151 148 140 119 114 143 121 139 152 153 115 49 289 256 225 194 221 210 185 198 184 128 114 112 118 112 121 115 89 78 68
197 195 192 193 195 193 199 199 179 194 213 214 190 194 215 236 217 196 197 202 226 198 206 190 203 236 251 193 193 203 215 181 158 172 185 174 190 194 169 176 174 181 162 169 173 174 175 175 169 169 172 168 156 151 147 135 139 138 126 133 119 138 149 127 108 153 234 224 217 205 230 222 201 186 184 161 147 111 104 102 92 51 50 78 27 18
197 209 191 188 184 193 193 194 193 189 207 222 187 185 197 219 216 211 199 212 212 222 208 191 195 223 226 232 192 201 213 211 192 175 185 191 183 186 174 178 172 180 155 177 171 171 173 170 168 162 161 149 145 138 133 142 143 140 136 128 140 147 135 129 158 144 173 240 220 216 223 230 195 177 144 110 107 123 99 100 69 59 20 357 40 26
185 197 165 192 194 196 195 198 200 188 209 215 191 177 191 200 205 207 226 224 219 226 227 202 192 215 225 219 205 193 207 208 198 183 181 171 183 183 183 177 165 172 175 170 184 170 168 170 160 161 157 153 148 144 148 146 144 140 140 139 144 139 133 141 144 157 188 211 142 189 205 179 157 127 122 129 113 123 112 112 96 46 36 10 14 0
179 189 177 199 210 207 203 192 194 190 203 207 169 190 186 202 208 209 214 226 228 228 211 212 211 194 236 209 203 195 192 209 202 192 182 158 175 179 181 167 175 175 195 182 181 164 161 158 157 161 154 158 153 153 152 141 140 139 137 141 143 141 132 125 122 143 340 74 121 195 138 123 115 114 118 120 120 116 104 72 36 58 81 132 93 11
182 195 200 196 210 213 192 193 184 187 200 197 178 199 194 183 188 201 198 207 219 222 201 202 217 206 218 248 197 189 195 196 208 200 192 180 168 179 169 176 188 185 171 187 168 161 153 155 157 160 158 157 153 149 147 142 137 140 141 142 136 134 129 116 111 95 134 204 169 140 118 112 98 87 86 102 109 83 43 39 79 311 267 107 23 33
182 190 191 205 199 212 191 195 172 187 197 193 186 195 195 187 186 202 201 207 221 221 232 202 209 232 197 223 259 215 177 191 202 205 188 188 188 161 173 196 184 176 180 169 165 158 154 152 162 159 152 147 148 148 143 143 139 137 135 133 123 124 111 116 138 154 139 111 94 84 72 80 75 74 83 74 64 90 85 83 74 19 25 24 61 23
173 187 198 194 196 188 200 210 175 191 191 193 199 202 205 202 188 195 202 199 209 204 206 230 201 216 206 174 228 198 159 163 196 198 187 188 187 186 162 175 172 165 159 173 160 157 151 153 148 147 144 146 152 146 129 133 144 128 125 121 113 120 125 126 121 105 93 80 64 57 58 82 92 84 59 57 52 48 62 77 71 54 15 7 13 25
193 203 180 197 192 184 204 197 183 189 195 197 203 217 214 214 182 208 199 224 204 205 202 195 237 196 204 84 34 106 118 130 202 202 184 186 185 184 172 168 151 152 164 160 157 152 147 144 142 144 146 151 153 135 137 137 116 125 124 120 122 124 117 116 110 105 97 96 99 92 93 86 84 97 101 103 93 84 49 34 60 83 54 27 15 37
186 203 173 185 195 189 194 189 200 193 200 177 203 211 212 216 201 198 187 10 358 240 211 178 211 194 71 217 111 200 158 173 186 200 197 188 193 183 167 163 154 161 156 155 147 149 142 145 149 150 153 154 141 133 138 139 148 145 138 127 119 118 116 117 113 107 108 101 105 101 94 92 85 87 86 85 86 94 80 76 45 50 47 45 36 31
184 187 167 174 191 184 194 198 209 201 212 172 208 205 211 223 231 200 207 179 229 205 205 184 198 205 188 205 173 189 183 182 186 195 196 197 197 184 167 161 161 155 131 163 143 132 137 149 157 162 159 153 140 132 130 128 132 126 124 124 124 124 120 115 110 106 101 97 88 88 89 88 86 90 91 95 98 81 88 83 75 58 65 50 44 46
196 178 165 182 194 174 193 201 214 206 217 207 202 191 208 182 219 206 214 204 197 207 216 190 196 221 207 195 165 181 195 188 191 197 198 198 189 185 175 172 162 148 132 120 129 132 144 158 159 153 142 137 139 140 128 117 115 115 118 119 121 119 117 113 111 108 106 104 100 97 97 101 102 98 98 98 88 89 87 80 75 75 70 62 51 42
200 194 162 186 199 172 188 197 202 188 205 235 204 205 213 222 210 207 207 217 195 208 222 204 202 222 210 193 170 179 192 194 195 198 198 191 188 181 179 166 152 140 140 148 150 149 144 140 145 144 142 145 145 138 130 125 123 118 120 117 115 113 113 111 106 102 99 95 100 96 88 86 83 79 79 83 88 88 84 81 84 82 72 60 50 45
198 187 171 177 191 172 196 192 202 186 185 200 212 202 191 224 204 233 188 221 197 206 207 220 210 208 213 165 179 176 186 191 195 195 193 189 183 182 171 167 145 153 147 153 155 147 146 145 146 138 133 131 133 132 129 130 127 119 110 113 121 120 116 111 109 106 104 107 103 97 92 85 83 82 79 81 87 85 76 74 73 71 73 68 55 48
203 177 177 169 189 192 199 188 202 190 192 200 206 207 197 198 194 199 210 197 227 205 195 205 224 202 45 163 183 174 183 182 187 194 194 190 177 172 160 138 144 144 148 151 151 150 151 152 145 128 135 140 139 137 124 128 131 130 128 130 124 119 115 112 106 102 105 103 101 101 96 83 77 76 81 79 76 78 76 68 67 69 69 67 59 48
198 174 180 188 197 190 201 174 207 198 198 206 200 215 214 203 210 197 218 196 215 227 224 206 216 166 77 51 123 107 173 181 182 188 186 187 167 139 131 136 136 141 146 152 151 147 142 141 142 144 144 143 140 132 129 131 134 133 132 131 128 122 117 112 107 105 103 103 106 101 89 90 93 94 85 81 78 77 75 72 64 66 66 65 63 55
177 186 179 185 189 186 199 182 201 221 208 204 201 216 211 213 204 220 213 219 214 211 228 195 236 151 138 57 73 15 224 171 170 175 168 112 110 132 134 136 139 144 148 146 137 122 124 134 145 148 138 137 137 136 128 130 132 133 133 127 124 122 123 115 110 107 105 103 100 105 106 101 97 89 86 83 79 80 81 75 70 68 70 67 64 63
189 190 179 176 180 173 193 187 194 211 220 209 203 207 218 213 201 220 233 218 226 218 228 200 210 147 161 191 153 182 151 114 144 155 126 123 133 138 141 144 144 147 141 130 136 140 142 150 151 147 140 136 135 131 128 132 129 127 129 125 124 119 112 113 116 115 115 116 115 110 108 105 98 92 85 83 82 82 81 80 76 68 68 68 64 58
207 181 184 187 178 177 185 188 188 191 202 199 210 203 213 218 205 196 214 216 235 201 221 213 204 77 115 186 173 177 148 141 152 134 101 131 137 140 145 149 147 140 141 140 144 145 152 152 141 137 137 137 135 134 134 131 128 129 130 128 122 108 110 111 113 117 119 121 116 113 106 101 95 88 87 87 84 79 79 81 79 76 70 65 67 64
214 202 198 200 199 190 199 189 173 190 189 209 197 209 201 214 216 209 205 224 217 200 224 212 216 140 153 185 175 172 169 161 159 127 123 127 137 142 149 149 142 136 145 146 150 151 138 134 139 133 134 135 134 134 135 134 133 131 130 127 125 115 102 97 100 108 120 121 116 111 101 93 91 94 90 85 84 85 81 76 76 74 71 69 69 67
217 207 200 206 207 208 200 184 186 202 201 205 202 204 206 203 217 215 207 215 218 228 220 215 209 167 180 178 182 173 168 165 146 124 130 133 138 147 133 115 124 135 149 147 146 141 136 135 132 133 133 135 135 133 128 132 136 140 137 131 126 119 118 122 120 118 122 120 116 111 104 102 98 92 90 90 86 83 83 82 79 77 74 73 68 66
202 214 196 199 209 216 188 191 195 194 210 201 210 203 205 203 208 217 211 220 206 217 223 198 212 199 171 168 184 163 165 172 156 142 142 140 137 135 131 138 142 144 142 145 145 140 134 134 133 135 137 134 129 127 133 137 138 133 125 122 122 122 123 128 129 129 124 119 117 112 109 105 101 99 98 94 93 88 82 80 79 79 79 74 73 68
215 202 196 209 209 214 202 205 202 197 197 204 205 209 207 209 206 208 216 220 215 211 236 258 210 217 171 156 157 151 165 151 140 137 147 150 147 146 150 154 150 148 146 142 136 135 137 137 138 136 134 132 130 132 133 135 137 137 134 125 120 121 125 128 127 131 130 126 122 119 112 107 105 103 100 99 95 93 92 86 80 80 76 73 69 66
231 170 191 199 210 221 219 204 184 202 209 209 202 207 207 208 209 204 207 216 214 213 221 244 231 217 157 159 147 123 131 138 143 152 157 155 155 157 157 155 151 147 143 139 135 135 134 131 127 129 135 138 139 140 141 143 141 138 130 121 122 124 126 132 148 157 118 126 124 120 114 109 107 105 101 102 99 94 90 85 83 80 77 74 71 67
223 200 190 195 203 198 219 189 190 208 208 215 206 204 206 203 208 200 205 195 206 212 211 216 189 202 102 120 118 136 143 153 157 158 158 163 160 162 156 151 148 145 140 129 118 112 113 126 127 133 137 136 136 135 137 137 136 135 127 124 125 127 130 132 130 120 128 129 133 119 114 113 109 106 103 102 100 97 91 90 88 83 80 78 74 68
205 210 189 191 202 192 192 204 206 208 212 216 218 207 203 205 207 204 204 199 208 206 204 204 204 163 148 144 152 155 159 156 157 165 164 164 167 160 153 151 145 139 132 125 127 131 134 128 128 134 139 141 140 139 139 137 133 130 128 127 127 132 134 134 133 133 135 129 121 110 114 114 110 108 108 103 98 93 93 91 87 84 83 80 79 75
178 205 186 191 205 199 179 204 205 210 211 213 217 221 209 206 200 208 199 202 199 205 210 213 216 212 151 170 178 164 164 162 158 165 168 166 160 152 154 151 138 134 131 135 140 141 137 134 134 137 138 140 141 140 137 134 131 131 133 131 134 137 135 133 130 126 126 126 123 121 115 110 110 109 108 107 101 99 98 97 94 96 93 92 85 84
186 200 192 184 202 194 168 188 196 212 220 88 60 65 280 254 216 204 213 200 202 202 212 212 209 221 164 175 184 157 151 145 151 159 171 162 161 159 157 146 139 137 138 143 148 145 139 131 127 134 142 146 138 131 129 128 130 131 131 136 136 135 134 131 125 119 119 121 129 120 115 115 111 109 105 101 99 99 95 91 97 92 83 80 80 79
180 209 192 186 201 145 173 191 207 208 104 178 65 52 42 206 236 223 209 204 204 200 201 219 203 171 199 117 121 137 139 144 145 155 152 154 164 160 156 144 144 146 145 148 145 143 140 142 142 144 140 133 129 133 134 131 133 132 133 135 135 133 128 125 121 117 118 120 115 115 119 117 116 112 111 109 108 105 100 97 91 93 94 86 75 70
190 210 211 187 210 177 186 195 210 112 170 134 174 195 175 201 193 205 216 207 190 193 199 203 202 183 141 135 131 129 133 141 145 151 158 165 162 155 150 151 151 145 141 146 146 147 147 143 142 139 141 144 137 135 135 138 138 134 135 135 135 129 124 120 115 114 118 122 117 116 116 116 115 113 111 108 108 106 106 106 103 91 83 90 92 89
192 218 185 208 200 236 201 201 209 203 229 196 136 159 205 226 210 199 217 220 208 214 209 203 206 165 151 141 136 132 140 146 158 162 164 166 158 151 152 151 152 145 145 148 145 140 140 140 138 141 143 136 135 137 140 139 138 140 136 132 129 127 124 120 118 118 116 111 108 114 117 117 117 116 113 111 108 107 108 107 98 97 98 94 98 95
189 220 215 221 195 216 226 215 210 215 56 73 127 141 170 177 206 182 211 226 194 207 206 208 207 165 162 150 145 147 161 174 176 173 172 165 162 159 149 148 151 145 152 153 145 144 141 139 146 144 137 136 137 140 143 141 142 138 137 132 126 119 115 113 113 116 115 113 112 113 114 112 110 109 111 112 112 111 109 103 104 117 114 104 98 95
207 211 209 216 212 209 217 214 211 239 146 176 143 157 151 187 169 165 204 220 187 193 196 205 199 166 167 160 154 166 180 190 174 164 168 166 148 139 140 147 147 153 147 142 143 143 141 143 143 139 138 140 139 142 143 150 136 120 114 108 103 101 101 102 101 101 102 103 102 101 101 104 107 110 114 111 106 102 101 105 106 100 102 103 99 98
199 208 214 227 214 203 223 230 218 133 111 136 124 126 147 142 179 195 204 144 73 177 189 197 191 174 171 166 167 179 192 330 142 146 159 143 129 136 141 148 148 145 133 136 139 143 144 144 141 140 142 141 143 142 138 132 124 125 120 113 108 107 107 104 102 101 101 108 111 110 106 101 106 112 110 106 104 109 111 107 106 99 94 92 91 96
192 206 197 217 222 213 205 226 227 83 102 139 143 142 135 156 181 197 32 300 311 222 186 199 187 171 171 171 175 184 142 95 129 143 152 142 138 140 141 143 139 141 140 136 139 152 151 144 138 142 142 144 143 143 141 139 130 126 128 121 116 118 119 118 119 123 126 127 122 119 119 116 108 103 108 115 118 117 110 113 111 110 104 101 103 98
182 194 198 201 207 225 214 223 227 224 156 185 159 142 176 233 119 22 226 8 312 293 199 183 169 171 168 167 174 165 136 134 137 141 142 145 142 140 143 145 143 146 141 137 144 147 147 146 143 141 143 146 145 142 140 135 129 126 125 123 125 129 130 131 135 135 131 124 119 118 115 115 118 119 118 118 118 116 115 112 108 107 110 113 110 104
196 209 196 197 205 217 197 219 203 33 112 154 179 165 178 94 51 31 356 108 46 212 214 174 170 171 172 168 171 144 139 139 139 134 139 147 146 144 146 146 145 143 144 149 147 147 148 145 144 144 145 145 142 139 136 133 129 128 126 127 132 131 134 136 132 124 121 120 119 119 118 121 123 122 119 118 116 112 109 106 106 109 108 114 107 104
170 258 348 251 197 222 245 94 105 127 125 141 85 70 80 102 97 43 36 36 45 124 188 179 147 163 164 171 148 138 133 141 148 149 150 148 148 148 148 147 149 151 152 150 149 145 142 144 147 147 144 142 136 136 134 132 128 129 127 128 133 135 131 127 126 126 124 123 123 127 126 122 118 116 118 119 117 112 108 108 110 106 103 90 86 92
132 140 163 269 281 95 112 96 103 108 138 119 73 64 92 125 127 32 48 64 66 38 163 185 170 172 167 158 158 148 144 148 146 152 147 147 146 142 146 147 150 152 148 145 144 144 144 146 142 138 136 135 135 132 129 129 131 129 129 135 134 132 130 130 128 125 124 125 128 128 128 124 118 112 106 103 99 95 94 98 101 99 91 88 88 89
114 156 190 213 180 247 199 155 137 119 126 146 124 101 100 163 72 8 54 85 85 120 183 143 194 173 181 169 168 160 151 147 153 149 145 148 148 152 151 150 154 151 144 143 139 137 143 141 139 137 135 132 132 131 132 134 132 131 133 133 134 133 134 130 128 126 129 129 127 123 120 121 118 118 113 102 94 90 89 81 81 69 74 89 93 84
140 341 236 224 201 217 31 66 99 98 105 130 167 156 142 101 103 84 42 45 77 128 161 207 174 165 162 159 153 168 159 154 149 154 155 152 154 154 150 146 143 144 141 137 138 141 141 141 139 137 134 132 133 134 136 136 134 135 135 135 135 133 130 129 130 132 130 127 126 126 120 113 133 129 110 95 79 77 85 88 73 59 49 30 18 27
121 254 224 212 210 59 161 159 121 146 157 168 180 52 58 68 92 102 74 121 191 129 124 180 148 128 149 173 168 165 162 158 154 159 160 157 156 151 145 141 138 138 138 138 140 142 142 141 138 136 133 133 135 136 137 136 137 136 137 136 134 134 134 132 134 130 130 129 124 117 128 133 120 105 102 95 83 64 42 34 64 86 72 45 36 30
234 259 324 198 201 159 328 15 318 234 185 163 173 157 108 88 81 95 95 94 224 108 146 159 157 149 166 168 175 173 158 160 162 163 162 160 151 145 139 137 137 137 139 140 143 142 139 138 136 135 134 134 137 138 137 138 137 138 137 137 138 138 135 137 135 134 132 130 129 135 132 121 116 114 112 110 105 92 73 52 48 36 58 73 53 51
322 37 358 330 324 114 143 102 307 339 48 56 134 126 111 113 115 109 126 169 113 128 168 167 163 162 170 165 176 172 158 161 162 162 158 156 147 142 140 141 142 143 143 145 143 140 139 138 135 134 135 137 139 138 138 138 138 138 137 137 138 139 140 138 136 134 131 135 138 133 128 129 127 122 114 113 112 108 106 101 72 60 52 55 51 48